Flag for U.S.A. Weather past 2 weeks in Hampton, Virginia, U.S.A.

Now
82 °F

Passing clouds.


Feels Like: 83 °F
Forecast: 70 / 83 °F
Wind: 7 mph from Southeast

Location: Langley Air Force Base

Current Time: Jul 31, 2014 at 6:03:12 PM

Latest Report: Jul 31, 2014 at 4:58 PM


Visibility: 10 mi

Pressure: 30.13 "Hg

Humidity: 50%

Dew point: 62 °F

Location of HamptonLocation

Historic Weather in Hampton — Graph

°F

Hampton temperature yesterday

Maximum temperature yesterday: 79 °F (at 3:58 PM)
Minimum temperature yesterday: 66 °F (at 3:58 AM)
Average temperature yesterday: 73 °F

Past Weeks' High & Low Weather Summary

 TemperatureHumidityPressure
High90 °F (Jul 23, 4:58 PM)100% (Jul 18, 1:58 AM)30.23 "Hg (Jul 18, 1:58 AM)
Low64 °F (Jul 18, 4:58 AM)41% (Jul 29, 4:58 PM)29.64 "Hg (Jul 28, 4:58 AM)
Average76 °F77%30.02 "Hg
* Reported Jul 16 4:58 PM — Jul 31 4:58 PM, Hampton, Weather by CustomWeather, © 2014

Note: Actual official high and low records may vary slightly from our data, if they occured in-between our weather recording intervals... More about our weather records

Advertising

Hampton weather history for previous 24 hours

 ConditionsComfort  
Time TempWeatherWind HumidityBarometerVisibility
4:58 PM
Jul 31
82 °FPassing clouds.7 mph50%30.13 "Hg10 mi
3:58 PM83 °FPassing clouds.8 mph51%30.13 "Hg10 mi
2:58 PM82 °FScattered clouds.9 mph55%30.14 "Hg10 mi
1:58 PM83 °FDrizzle. Partly sunny.6 mph53%30.15 "Hg9 mi
12:58 PM81 °FBroken clouds.6 mph59%30.15 "Hg10 mi
11:58 AM80 °FMostly cloudy.7 mph60%30.16 "Hg10 mi
10:58 AM81 °FScattered clouds.7 mph59%30.16 "Hg10 mi
9:58 AM78 °FSunny.8 mph63%30.15 "Hg10 mi
9:01 AM77 °FPassing clouds.10 mph69%30.13 "Hg10 mi
7:58 AM72 °FSunny.3 mph86%30.14 "Hg10 mi
6:58 AM66 °FPassing clouds.No wind100%30.14 "Hg8 mi
5:58 AM65 °FClear.No wind99%30.12 "Hg9 mi
4:58 AM65 °FClear.No wind100%30.11 "Hg10 mi
3:58 AM65 °FClear.2 mph100%30.11 "Hg10 mi
2:58 AM67 °FClear.No wind93%30.11 "Hg10 mi
1:58 AM70 °FPassing clouds.5 mph82%30.11 "Hg10 mi
12:58 AM68 °FClear.2 mph85%30.10 "Hg10 mi
11:58 PM
Jul 30
71 °FClear.3 mph76%30.10 "Hg10 mi
10:58 PM72 °FClear.6 mph69%30.10 "Hg10 mi
9:58 PM73 °FClear.6 mph64%30.10 "Hg10 mi
8:58 PM73 °FSunny.5 mph65%30.08 "Hg10 mi
7:58 PM73 °FSunny.6 mph67%30.07 "Hg10 mi
6:58 PM77 °FPassing clouds.8 mph59%30.06 "Hg10 mi
Weather by CustomWeather, © 2014

See weather overviewHow to use our weather pages